Temperature
29 29 29 30 30 30 30 30 31 32 33 31 30 30 31 32 30 29 28 26 24 22 21 20 19 19 19 19 19 19 18 18 18 18 18 18 18 18 18 18 18 18 18 18
29 29 30 30 30 30 30 30 30 31 32 31 30 30 31 32 31 29 27 25 24 22 21 20 20 20 20 20 19 19 19 18 18 18 18 18 18 18 19 19 19 19 19 18
29 29 30 29 30 29 29 30 30 29 30 30 29 29 30 31 30 27 26 25 24 23 22 21 20 20 20 20 20 19 19 18 18 18 17 17 17 17 18 18 18 18 19 19
29 30 29 29 29 29 28 29 29 28 27 27 28 27 29 30 27 26 26 25 24 24 23 23 22 22 21 21 20 19 19 18 17 17 16 16 16 16 16 16 17 17 17 17
29 29 29 28 29 29 28 29 28 28 27 27 28 27 29 29 26 25 25 25 24 24 24 23 22 22 21 20 20 19 18 18 17 16 16 16 16 16 16 16 16 16 16 17
29 29 29 29 30 29 29 28 28 28 27 26 27 26 27 27 26 25 24 24 24 24 24 23 23 22 21 20 19 19 18 17 17 16 16 16 15 15 15 16 16 15 15 16
27 28 29 29 28 28 28 26 25 26 27 26 25 26 27 27 28 27 26 25 25 25 24 24 23 22 21 20 19 18 18 17 16 16 16 16 15 16 15 15 15 15 15 15
26 26 28 29 28 27 27 26 25 24 25 26 27 27 29 28 28 27 26 26 25 25 24 24 23 22 21 20 19 18 17 16 16 16 16 16 15 15 15 15 15 15 14 14
26 26 29 29 29 28 27 27 28 26 25 25 27 28 28 27 27 26 26 26 25 25 24 24 23 22 21 20 19 18 17 16 15 15 15 15 15 15 14 14 14 14 14 14
28 26 28 29 29 28 28 27 26 25 24 24 25 26 26 26 26 27 27 26 26 25 25 24 23 22 20 19 18 17 16 15 15 14 14 14 14 14 14 14 13 13 13 13
28 26 27 28 28 27 27 26 26 26 25 23 23 25 28 27 27 27 26 26 25 24 24 23 22 21 20 19 17 16 15 15 14 14 13 13 13 13 13 13 13 12 12 12
27 26 25 26 28 29 28 27 26 24 24 24 23 24 28 27 27 27 26 25 24 24 23 22 22 21 19 18 17 16 15 15 14 13 13 12 12 12 12 12 12 12 12 12
26 24 23 25 27 27 27 27 27 26 25 24 23 25 28 28 27 26 26 25 24 23 23 22 21 20 19 18 17 16 15 15 14 13 13 12 12 11 11 12 11 11 11 11
26 24 23 23 24 26 26 26 27 26 25 25 25 25 26 26 26 26 25 24 23 23 22 22 21 20 19 18 17 16 15 14 14 13 13 12 12 12 11 11 11 11 11 11
26 24 24 25 26 26 26 26 26 26 26 25 25 25 26 25 25 24 23 23 23 22 22 22 21 20 19 18 17 16 15 14 14 13 13 13 12 12 12 12 11 11 11 11
26 24 24 24 25 26 26 27 27 26 26 26 25 25 25 24 24 23 22 22 22 22 22 22 21 20 19 18 17 16 15 14 14 14 13 13 12 12 12 12 12 11 11 11
25 23 23 23 25 25 25 26 26 26 26 25 23 23 23 23 22 21 21 21 21 22 22 21 20 19 19 17 17 16 15 14 14 14 13 13 12 12 12 12 12 12 12 11
24 23 22 23 23 22 25 27 26 25 24 23 22 22 21 21 20 20 21 20 20 20 20 20 20 19 18 17 17 16 15 14 14 13 13 13 13 12 12 12 12 12 12 11
24 22 22 22 23 24 25 24 23 23 22 20 20 19 19 19 19 20 19 18 18 19 19 20 19 19 18 17 17 16 15 14 14 13 13 13 13 13 13 12 12 12 12 11
25 23 22 22 21 20 22 23 22 22 21 18 18 18 17 18 18 18 17 16 16 16 17 18 19 19 18 17 16 16 15 14 14 13 13 13 13 13 13 13 13 12 12 12
24 23 22 21 21 22 20 21 21 19 16 15 15 15 15 15 15 15 15 15 14 14 15 16 16 17 17 17 16 15 15 14 14 13 13 13 13 13 13 12 12 12 12 11
23 23 22 22 20 19 16 17 14 13 13 12 12 12 12 12 12 13 13 13 12 12 13 13 14 14 15 16 16 15 15 14 14 13 13 13 13 12 12 12 12 12 11 11
23 21 21 20 17 13 12 12 11 10 9 9 9 9 9 9 9 10 11 11 11 11 11 12 12 12 13 14 14 14 14 14 14 13 13 13 13 12 12 12 12 11 11 11
21 20 21 19 15 13 11 10 10 9 8 8 8 8 9 8 8 8 9 10 10 10 10 11 11 11 12 12 13 13 14 13 13 13 13 13 12 12 12 12 12 11 11 11
16 17 17 16 13 13 11 10 9 9 9 9 9 9 10 9 9 9 9 10 10 10 10 10 10 11 11 11 11 12 13 13 13 13 13 12 12 12 12 12 11 11 11 11
15 14 14 12 11 11 10 9 9 9 9 9 9 10 10 10 10 10 10 10 9 9 9 9 9 10 10 10 11 11 12 13 13 12 12 12 12 12 12 11 11 11 11 11
Wind_Speed
10 10 10 4 6 11 13 14 14 10 2 1 6 13 16 11 8 7 5 5 5 3 3 2 4 5 5 5 4 4 5 4 3 5 7 8 7 7 8 9 8 8 8 7
7 10 3 6 6 9 11 11 12 13 8 6 10 13 16 19 12 8 6 5 5 6 6 6 6 6 5 6 7 7 7 6 4 4 5 6 8 7 6 6 6 7 7 7
10 3 3 6 9 8 10 10 12 13 15 15 18 21 22 22 9 10 7 6 5 6 9 10 10 9 7 6 6 6 5 4 5 6 6 8 7 7 8 9 9 10 9 9
9 4 1 8 12 8 9 11 13 13 15 17 19 20 19 7 12 11 9 8 7 5 3 3 1 2 4 5 6 5 4 5 6 7 9 11 10 11 11 9 9 9 10 10
6 4 6 10 11 11 10 12 14 17 17 20 20 18 16 5 12 10 8 7 6 5 4 3 3 3 5 5 5 5 6 5 6 7 9 10 12 12 11 11 11 10 8 7
8 5 6 7 9 6 7 11 16 18 17 19 12 13 6 8 10 12 10 9 9 7 7 6 5 5 4 4 5 5 7 8 7 6 7 8 11 13 14 14 12 9 6 6
7 7 5 5 8 6 6 9 10 10 6 5 2 8 6 11 10 11 11 9 6 5 6 5 5 4 3 5 5 4 6 6 7 7 7 7 10 12 14 14 12 9 6 6
6 6 4 2 5 6 7 8 8 10 11 14 12 10 1 11 9 6 2 3 5 7 7 5 4 3 4 4 4 2 4 6 7 8 8 9 9 10 11 11 9 7 5 4
7 7 6 4 3 6 7 7 9 9 14 16 11 9 6 9 4 1 4 6 8 7 8 9 6 4 4 5 3 3 3 4 5 7 8 8 9 10 10 9 6 4 3 3
8 12 13 6 6 8 9 9 8 7 9 12 13 12 6 3 3 4 7 9 10 10 12 9 6 6 6 4 2 3 1 0 2 5 7 7 8 9 8 4 1 1 2 3
13 13 15 14 13 12 9 10 10 9 10 12 16 12 10 11 9 9 10 10 11 14 14 10 7 6 5 3 0 2 3 4 4 4 6 6 6 6 6 5 6 6 5 4
11 10 12 15 16 15 11 10 12 11 13 14 16 16 12 7 9 10 11 10 9 9 10 8 7 5 5 4 3 5 5 6 5 4 4 4 3 4 5 6 7 6 5 4
8 7 11 11 9 7 8 10 13 13 13 14 17 14 9 11 14 13 12 10 10 10 10 8 5 5 4 4 4 5 6 5 5 4 3 2 1 1 2 3 3 1 2 3
3 8 11 13 15 17 16 17 18 17 15 18 19 20 18 17 15 13 11 10 12 11 9 7 4 4 3 3 4 5 6 6 6 5 3 3 2 1 2 4 4 3 3 4
4 10 13 16 19 21 22 20 19 19 19 20 21 20 17 14 13 12 12 14 15 14 11 8 5 3 3 4 5 6 6 5 5 5 5 5 4 3 3 4 5 4 2 1
6 10 15 19 21 22 22 19 18 17 16 15 15 14 14 14 13 14 14 16 18 17 13 9 6 5 4 5 6 6 6 5 6 6 5 6 5 4 4 5 5 5 4 2
12 13 16 17 19 18 15 12 8 8 10 12 13 12 15 14 15 15 15 17 20 17 12 8 6 5 4 5 5 5 6 6 5 5 6 7 7 6 6 7 7 6 5 4
9 9 9 14 17 15 10 9 10 8 6 12 13 14 16 17 17 15 14 15 16 16 13 9 6 5 6 6 7 6 7 6 6 6 6 8 8 7 6 6 7 6 5 5
6 6 8 11 15 15 12 11 10 8 6 14 14 16 18 20 20 16 18 22 21 18 14 10 7 8 6 7 7 6 7 7 7 8 7 10 11 10 8 7 7 5 5 6
8 8 9 12 15 16 9 10 11 9 9 15 17 18 20 22 19 17 22 23 24 23 17 13 9 8 7 7 7 7 8 9 10 9 8 11 12 12 11 10 7 5 5 6
7 10 13 14 15 9 11 13 12 7 10 19 21 21 21 19 18 21 24 23 23 21 21 19 14 8 7 8 8 9 9 10 11 10 9 10 13 14 13 10 8 6 6 7
14 14 12 10 12 6 19 11 9 9 14 19 21 21 20 21 23 24 25 25 24 23 22 21 18 14 9 9 11 11 11 9 9 10 10 9 11 13 14 13 11 9 8 7
8 6 5 5 4 9 15 12 12 14 15 17 18 20 21 21 23 26 26 25 23 23 21 18 18 17 15 12 12 14 12 10 9 10 11 9 10 10 11 14 14 11 9 9
8 9 8 5 9 9 14 14 15 15 16 16 16 19 19 18 20 23 24 23 22 21 20 18 17 18 16 16 16 15 12 11 10 10 10 9 9 9 10 11 11 12 12 10
7 9 8 7 10 10 14 17 18 19 20 21 21 21 20 18 19 20 19 19 18 19 19 19 17 16 17 14 18 16 15 13 12 11 10 11 11 10 10 11 10 11 10 10
7 7 6 5 8 10 13 15 16 17 19 21 23 24 24 23 25 24 20 18 17 18 18 20 21 20 19 15 14 16 14 15 14 12 11 11 11 10 10 10 7 3 5 10
Wind_Direction
230 241 259 330 340 326 313 310 320 316 93 136 280 284 284 262 213 215 197 176 180 170 131 186 249 248 231 225 233 249 267 288 311 308 306 297 288 280 271 268 270 275 274 264
258 256 319 6 320 294 287 289 286 277 283 291 279 274 278 277 243 191 179 173 179 169 169 188 207 226 231 216 214 222 237 260 274 279 288 284 284 283 283 277 270 261 258 258
286 57 19 279 258 262 285 299 304 314 325 314 299 283 273 264 194 146 163 175 179 184 187 195 204 214 229 239 242 256 252 261 274 274 276 275 271 266 262 257 252 247 241 236
274 251 270 286 287 287 282 311 330 314 298 288 287 289 286 250 152 159 166 166 155 154 166 179 212 336 326 331 331 327 297 250 244 249 257 263 269 271 271 267 259 248 238 235
294 334 291 276 284 299 305 316 306 288 278 275 273 273 280 204 157 159 159 162 172 182 214 235 255 276 287 298 305 311 299 279 261 251 252 259 265 268 272 273 267 258 247 227
300 291 279 288 298 311 309 298 285 269 257 262 289 309 307 108 146 156 164 190 204 219 232 229 237 245 255 285 296 305 313 304 290 272 267 267 272 274 276 276 275 271 247 217
281 266 258 274 289 291 284 298 305 310 287 260 241 279 293 131 140 157 176 193 212 258 271 266 272 280 279 279 279 290 307 328 338 331 316 297 284 280 273 270 268 259 239 219
313 322 277 281 306 305 284 281 293 319 319 319 300 287 274 125 117 119 158 239 273 287 288 283 281 277 277 283 283 310 358 351 343 334 325 316 306 294 283 274 262 249 234 211
319 317 311 263 269 293 284 282 317 316 294 289 296 322 95 111 100 191 250 257 259 275 295 291 288 320 342 346 359 40 25 0 346 337 333 327 325 315 300 287 260 220 183 152
301 303 303 292 208 239 248 290 304 292 297 304 305 312 13 75 286 289 308 312 305 308 312 314 347 352 354 359 29 90 74 159 315 328 333 333 336 337 329 319 296 121 114 117
317 301 293 288 269 270 252 244 267 286 293 297 297 300 317 322 324 328 319 323 337 336 335 340 344 342 343 337 181 192 221 211 240 290 322 334 346 357 17 37 53 54 50 38
315 310 305 296 288 283 269 277 290 287 284 283 285 289 303 340 337 329 326 331 340 335 323 316 321 337 335 314 257 241 241 229 238 269 309 328 350 15 40 53 50 40 29 8
347 326 306 299 301 275 278 281 278 276 274 273 276 283 299 319 320 325 325 335 342 334 325 316 312 309 311 294 257 263 270 258 250 263 272 292 307 53 85 103 95 34 309 297
278 279 277 287 299 308 297 288 286 284 281 281 283 292 305 316 320 325 337 343 330 319 311 300 288 285 288 269 251 260 275 265 250 250 236 222 201 179 156 159 163 193 257 278
262 276 285 293 298 295 290 288 289 287 283 284 290 297 314 337 345 355 354 343 330 320 308 296 290 283 261 248 235 242 250 248 251 256 238 206 190 181 157 142 153 166 200 229
301 291 296 292 291 290 286 281 282 283 284 289 303 317 347 354 357 358 352 339 325 312 302 295 309 305 266 245 243 238 230 234 240 248 241 197 189 177 149 147 153 147 141 124
283 290 291 290 297 302 294 300 297 304 319 328 327 342 358 359 356 348 338 322 314 308 301 301 303 297 258 246 243 235 225 227 238 242 233 187 184 175 164 162 156 152 152 153
260 280 285 284 291 287 293 348 327 310 353 7 360 3 359 349 341 332 327 335 343 337 323 307 298 289 254 237 232 220 217 212 217 226 210 176 174 168 164 158 153 165 169 152
199 245 279 285 289 294 315 19 10 344 342 35 6 353 346 339 327 326 348 344 332 322 310 291 266 267 261 240 236 222 207 206 213 216 198 175 171 167 167 160 161 173 164 148
195 211 249 274 289 292 324 2 352 315 277 22 1 350 344 340 330 328 335 330 330 333 326 317 279 246 241 232 229 226 215 205 209 211 204 178 172 174 179 176 173 178 170 164
263 247 247 261 270 272 22 2 350 322 348 359 356 353 349 342 329 325 329 332 332 333 336 337 323 269 238 222 213 220 224 214 205 204 207 188 177 181 186 185 182 181 182 178
296 290 291 298 295 314 22 34 35 2 359 5 0 356 350 342 335 332 331 331 330 332 336 340 339 327 286 241 216 216 220 217 204 201 205 202 184 187 192 189 191 191 188 179
323 355 335 351 46 75 53 53 33 19 10 5 356 344 343 341 337 331 328 326 325 328 330 334 332 331 320 286 243 223 215 209 210 206 202 201 190 195 186 186 189 189 189 189
344 2 325 333 74 68 54 31 17 8 356 345 336 328 328 328 323 317 314 315 318 320 321 322 325 325 327 326 285 243 221 205 208 211 200 190 187 185 180 183 184 187 189 193
6 356 339 349 16 358 10 3 351 342 334 327 321 313 307 300 295 294 296 301 307 311 312 314 312 312 313 326 322 273 229 209 207 206 198 188 188 183 181 185 188 195 194 194
35 26 10 2 1 335 328 328 319 311 306 303 302 303 304 306 305 301 297 297 299 303 307 308 310 311 312 314 327 310 257 215 204 203 198 191 187 180 180 177 161 74 178 191
Height
1495 1497 1494 1489 1488 1488 1486 1484 1482 1473 1468 1479 1486 1487 1480 1478 1481 1486 1491 1497 1502 1505 1508 1508 1509 1509 1509 1509 1509 1509 1509 1509 1508 1507 1507 1506 1505 1505 1504 1505 1505 1505 1505 1506
1494 1495 1488 1489 1490 1490 1487 1488 1485 1477 1471 1477 1484 1484 1479 1476 1475 1481 1488 1494 1499 1503 1506 1507 1508 1509 1509 1509 1508 1508 1507 1507 1506 1505 1503 1502 1501 1500 1500 1499 1499 1499 1499 1499
1495 1493 1492 1492 1490 1491 1489 1489 1487 1486 1481 1482 1487 1486 1476 1467 1471 1481 1488 1493 1498 1501 1503 1505 1506 1507 1507 1507 1507 1506 1505 1503 1502 1501 1499 1496 1495 1493 1493 1492 1492 1492 1492 1491
1494 1487 1492 1493 1490 1488 1495 1487 1489 1492 1496 1496 1490 1495 1476 1466 1474 1482 1488 1493 1497 1500 1502 1503 1505 1506 1506 1506 1505 1504 1502 1500 1498 1496 1494 1492 1490 1488 1487 1486 1484 1483 1483 1482
1492 1489 1492 1495 1491 1488 1491 1489 1492 1492 1494 1495 1488 1489 1474 1462 1477 1484 1489 1494 1497 1499 1500 1502 1503 1503 1504 1504 1503 1501 1499 1497 1495 1492 1490 1488 1485 1483 1481 1479 1477 1476 1475 1474
1493 1490 1490 1490 1487 1487 1490 1493 1491 1485 1487 1499 1489 1492 1482 1473 1478 1484 1490 1494 1495 1496 1497 1498 1499 1499 1500 1500 1499 1498 1496 1494 1491 1488 1485 1482 1480 1477 1474 1472 1470 1469 1468 1467
1497 1491 1488 1489 1491 1490 1493 1502 1508 1502 1494 1497 1492 1492 1480 1471 1471 1477 1483 1487 1490 1492 1493 1494 1495 1495 1496 1495 1494 1493 1491 1488 1486 1483 1480 1477 1474 1471 1468 1465 1463 1462 1462 1462
1505 1506 1490 1488 1492 1495 1495 1499 1514 1521 1514 1499 1485 1481 1467 1467 1472 1478 1482 1485 1488 1489 1490 1490 1491 1491 1491 1491 1490 1488 1486 1483 1480 1477 1474 1471 1468 1464 1461 1458 1457 1456 1456 1457
1504 1502 1487 1485 1489 1492 1495 1494 1489 1503 1504 1503 1488 1475 1470 1472 1477 1480 1482 1483 1485 1486 1486 1487 1487 1487 1488 1487 1486 1484 1481 1479 1476 1473 1470 1467 1463 1458 1454 1451 1450 1451 1452 1453
1496 1502 1490 1482 1485 1487 1491 1492 1497 1506 1514 1515 1499 1488 1485 1481 1478 1477 1479 1480 1481 1482 1482 1482 1483 1484 1485 1484 1482 1480 1478 1475 1473 1470 1467 1463 1459 1454 1449 1447 1446 1447 1448 1450
1494 1501 1495 1487 1486 1488 1488 1494 1494 1496 1500 1514 1515 1500 1473 1474 1473 1475 1477 1478 1480 1481 1481 1481 1481 1482 1482 1481 1479 1477 1475 1472 1470 1467 1464 1461 1457 1453 1448 1445 1444 1446 1447 1449
1496 1497 1501 1492 1480 1477 1480 1486 1491 1504 1505 1501 1505 1498 1471 1471 1473 1474 1476 1477 1478 1479 1479 1479 1479 1479 1479 1478 1477 1475 1473 1470 1468 1465 1462 1459 1457 1453 1450 1447 1446 1448 1449 1450
1503 1509 1514 1500 1488 1482 1485 1485 1485 1487 1491 1495 1501 1492 1468 1469 1470 1472 1473 1474 1476 1476 1476 1475 1475 1475 1475 1474 1473 1472 1471 1469 1466 1464 1461 1459 1457 1455 1452 1450 1450 1451 1451 1452
1502 1508 1514 1516 1504 1491 1489 1484 1480 1482 1489 1488 1485 1479 1470 1468 1468 1469 1471 1472 1473 1473 1471 1471 1470 1470 1470 1470 1470 1469 1468 1466 1464 1462 1460 1458 1457 1455 1454 1453 1453 1453 1454 1454
1499 1504 1500 1496 1490 1485 1482 1479 1476 1478 1477 1481 1477 1474 1470 1468 1469 1470 1471 1472 1471 1470 1468 1467 1466 1466 1465 1465 1465 1464 1464 1463 1461 1460 1459 1457 1456 1455 1455 1455 1455 1455 1456 1456
1495 1501 1501 1498 1488 1480 1475 1470 1469 1470 1469 1469 1470 1471 1468 1470 1471 1472 1473 1473 1471 1468 1465 1463 1463 1462 1461 1461 1460 1460 1459 1459 1458 1457 1456 1455 1454 1455 1455 1455 1456 1457 1457 1459
1497 1500 1503 1499 1486 1480 1480 1466 1465 1467 1467 1471 1476 1476 1473 1473 1475 1475 1474 1473 1469 1464 1461 1460 1459 1459 1458 1457 1456 1455 1455 1455 1455 1454 1453 1452 1452 1453 1454 1455 1456 1457 1459 1460
1495 1501 1502 1498 1493 1499 1475 1462 1462 1466 1470 1474 1476 1477 1478 1478 1477 1476 1474 1471 1468 1465 1462 1459 1456 1455 1454 1452 1452 1451 1450 1450 1450 1450 1450 1449 1450 1452 1454 1455 1456 1458 1460 1461
1491 1499 1502 1499 1495 1484 1471 1471 1474 1477 1480 1486 1484 1484 1482 1480 1476 1473 1473 1472 1469 1464 1460 1456 1452 1450 1449 1448 1447 1447 1446 1446 1446 1446 1446 1446 1448 1450 1452 1453 1455 1457 1459 1461
1488 1494 1501 1499 1503 1503 1484 1477 1478 1480 1483 1489 1489 1487 1485 1480 1477 1474 1475 1472 1467 1462 1456 1451 1446 1443 1443 1442 1442 1442 1441 1441 1441 1442 1443 1443 1445 1447 1450 1452 1454 1456 1459 1461
1489 1492 1496 1496 1496 1487 1490 1484 1483 1493 1500 1495 1492 1489 1487 1486 1485 1479 1474 1470 1465 1458 1451 1446 1442 1437 1436 1435 1435 1435 1435 1436 1436 1437 1439 1440 1441 1443 1446 1449 1452 1454 1457 1460
1489 1489 1488 1488 1493 1497 1498 1494 1503 1509 1504 1500 1498 1496 1492 1488 1484 1479 1474 1469 1463 1456 1448 1442 1438 1433 1431 1429 1427 1426 1427 1429 1431 1432 1434 1436 1437 1439 1442 1444 1448 1451 1455 1458
1485 1488 1488 1493 1503 1511 1508 1510 1512 1510 1506 1502 1500 1499 1493 1485 1482 1478 1472 1467 1461 1454 1447 1440 1435 1430 1426 1423 1420 1418 1419 1422 1424 1426 1428 1430 1433 1435 1437 1440 1443 1447 1451 1455
1488 1491 1490 1494 1503 1508 1509 1511 1511 1509 1507 1503 1500 1496 1489 1482 1477 1473 1468 1462 1456 1450 1444 1438 1431 1424 1419 1416 1412 1410 1412 1415 1417 1419 1421 1424 1427 1430 1432 1436 1439 1443 1447 1451
1502 1499 1499 1499 1508 1507 1507 1510 1509 1507 1503 1498 1492 1487 1481 1476 1471 1467 1461 1455 1449 1444 1439 1435 1429 1422 1414 1409 1404 1401 1405 1407 1409 1412 1415 1418 1421 1424 1427 1431 1435 1440 1444 1448
1508 1510 1511 1513 1516 1515 1512 1509 1505 1500 1495 1490 1484 1478 1474 1470 1465 1460 1454 1449 1443 1438 1433 1428 1423 1417 1410 1403 1398 1394 1394 1398 1402 1405 1409 1412 1415 1419 1423 1427 1431 1436 1440 1444